GW6059 Weather Reports


time (UTC)temp
C
wind
direction
speed
KPH
gust
KPH
rain 1hr
cm
rain 24hr
cm
rain mn
cm
humidity
%
barometer
mb
20260510180031 28 97 1.6 9.7 0.00 1.57 0.03 66 1015.9
20260510174512 27 140 1.6 12.9 0.00 1.63 0.03 69 1016.2
20260510173021 27 140 3.2 8.0 0.00 1.70 0.03 68 1016.3
20260510171522 27 231 6.4 11.3 0.00 1.73 0.03 68 1016.4
20260510170007 26 70 3.2 8.0 0.00 1.78 0.03 72 1016.5
20260510164512 25 123 0.0 9.7 0.00 1.85 0.03 74 1016.7
20260510163028 25 24 3.2 8.0 0.00 1.91 0.03 75 1016.9
20260510161521 25 113 3.2 6.4 0.00 2.01 0.03 75 1016.9
20260510160007 24 335 1.6 11.3 0.00 2.08 0.03 76 1016.8
20260510154510 25 110 1.6 6.4 0.00 2.21 0.03 76 1016.7
20260510153018 24 122 1.6 4.8 0.00 2.31 0.03 78 1016.6
20260510151516 23 25 4.8 9.7 0.00 2.44 0.03 80 1016.6
20260510150021 23 54 0.0 6.4 0.00 2.59 0.03 81 1016.7
20260510144540 22 126 0.0 8.0 0.00 2.95 0.03 85 1016.9
20260510143027 21 90 3.2 8.0 0.03 3.20 0.03 86 1016.9
20260510141517 21 102 0.0 11.3 0.03 3.28 0.03 90 1016.9
20260510140020 20 136 3.2 9.7 0.03 3.38 0.03 92 1017.0
20260510134522 20 120 1.6 6.4 0.03 3.51 0.03 93 1016.6
20260510133028 19 74 4.8 8.0 0.00 3.56 0.00 93 1016.5
20260510131527 19 74 1.6 4.8 0.00 3.81 0.00 94 1016.3
20260510130018 18 66 0.0 4.8 0.00 4.32 0.00 94 1016.1
20260510124522 18 53 1.6 4.8 0.00 6.91 0.00 94 1015.9
20260510123024 18 110 0.0 3.2 0.00 7.52 0.00 94 1015.9
20260510121511 18 83 0.0 8.0 0.00 7.52 0.00 94 1015.9
20260510120025 18 46 0.0 3.2 0.00 7.52 0.00 94 1015.4
20260510114530 18 136 0.0 1.6 0.00 7.52 0.00 94 1015.2
20260510113009 18 101 0.0 4.8 0.00 7.52 0.00 94 1014.7
20260510111530 18 65 1.6 4.8 0.00 7.52 0.00 94 1014.2
20260510110018 18 33 0.0 3.2 0.00 7.52 0.00 94 1014.1
20260510104520 18 49 1.6 4.8 0.00 7.52 0.00 94 1013.9
20260510103022 18 115 0.0 1.6 0.00 7.52 0.00 94 1013.6
20260510101508 18 124 0.0 1.6 0.00 7.52 0.00 94 1013.4
20260510100012 18 131 0.0 3.2 0.00 7.52 0.00 94 1013.3
20260510094517 18 67 1.6 4.8 0.00 7.52 0.00 94 1013.1
20260510093024 18 357 1.6 6.4 0.00 7.52 0.00 94 1013.2
20260510091525 18 36 3.2 8.0 0.00 7.57 0.00 94 1013.2
20260510090027 18 15 4.8 6.4 0.00 7.77 0.00 94 1013.3
20260510084512 18 21 3.2 8.0 0.00 8.10 0.00 93 1013.2
20260510083037 18 41 1.6 6.4 0.00 8.86 0.00 94 1013.0
20260510081523 18 68 0.0 1.6 0.00 8.99 0.00 93 1012.8
20260510080027 18 68 0.0 3.2 0.00 8.99 0.00 93 1012.8
20260510074514 18 72 0.0 3.2 0.00 8.99 0.00 93 1012.5
20260510073017 18 80 3.2 4.8 0.00 8.99 0.00 93 1012.6
20260510071531 18 41 0.0 3.2 0.00 8.99 0.00 93 1012.6
20260510070028 18 37 3.2 6.4 0.00 8.99 0.00 93 1012.7
20260510064509 18 8 3.2 4.8 0.00 8.99 0.00 93 1012.9
20260510063015 18 20 0.0 3.2 0.00 8.99 0.00 93 1012.8
20260510061526 18 78 0.0 1.6 0.00 8.99 0.00 93 1012.8
20260510060023 19 70 1.6 1.6 0.00 8.99 0.00 93 1013.0
20260510054527 19 44 3.2 6.4 0.00 9.88 0.00 93 1012.9
20260510053014 19 114 0.0 1.6 0.00 10.64 0.00 93 1013.0
20260510051523 19 114 0.0 1.6 0.00 10.64 0.00 93 1013.2
20260510050023 19 114 0.0 3.2 0.00 10.64 0.00 93 1013.3
20260510044530 19 114 1.6 3.2 0.00 10.64 10.64 93 1012.8
20260510043026 19 124 0.0 1.6 0.00 10.64 10.64 93 1012.9
20260510041517 19 124 0.0 1.6 0.00 10.64 10.64 93 1012.8
20260510040021 19 131 1.6 3.2 0.00 10.64 10.64 93 1013.0
20260510034524 19 37 1.6 4.8 0.00 10.64 10.64 93 1013.5
20260510033029 20 4 1.6 3.2 0.00 10.64 10.64 93 1013.7
20260510031506 20 113 0.0 3.2 0.00 10.64 10.64 93 1013.5
20260510030005 20 131 0.0 3.2 0.00 10.64 10.64 93 1013.3
20260510024506 20 217 0.0 0.0 0.00 10.64 10.64 93 1013.6
20260510023007 20 18 1.6 8.0 0.03 10.64 10.64 93 1013.5
20260510021504 20 313 1.6 4.8 0.08 10.64 10.64 93 1012.8
20260510020004 20 155 0.0 3.2 0.10 10.64 10.64 93 1012.0
20260510014504 20 118 1.6 6.4 0.10 10.64 10.64 93 1011.8
20260510013005 19 127 3.2 6.4 0.08 10.59 10.59 93 1012.0
20260510011506 19 297 0.0 4.8 0.03 10.57 10.57 93 1012.7
20260510010004 19 136 0.0 4.8 0.00 10.54 10.54 93 1011.9
20260510004507 19 124 0.0 3.2 0.05 10.54 10.54 93 1012.3
20260510003004 19 101 0.0 1.6 0.15 10.57 10.54 93 1012.3
20260510001507 19 112 0.0 3.2 0.15 10.57 10.54 93 1011.9
20260510000008 19 119 0.0 1.6 0.15 10.59 10.54 93 1012.5
20260509234508 19 118 0.0 1.6 0.10 10.57 10.49 93 1012.7
20260509233007 19 119 0.0 1.6 0.00 10.52 10.39 92 1012.7
20260509231507 19 119 0.0 1.6 0.03 10.59 10.39 93 1012.9
20260509230006 19 119 0.0 0.0 0.08 10.64 10.39 92 1012.3
20260509224508 19 119 0.0 1.6 0.10 10.69 10.39 92 1011.3
20260509223011 19 119 1.6 3.2 0.10 10.69 10.39 92 1011.3
20260509221524 19 126 0.0 3.2 0.08 10.69 10.36 92 1011.9
20260509220009 20 127 0.0 1.6 0.03 10.64 10.31 92 1012.0
20260509214509 20 11 0.0 0.0 0.00 10.64 10.29 92 1011.8
20260509213010 19 11 0.0 6.4 0.00 10.74 10.29 92 1011.4
20260509211510 20 134 0.0 4.8 0.05 10.87 10.29 92 1010.6
20260509210014 19 158 0.0 9.7 0.08 10.90 10.29 93 1010.6
20260509204512 19 139 3.2 9.7 0.18 10.92 10.29 93 1010.8
20260509203012 19 138 0.0 3.2 0.30 11.05 10.29 93 1011.8
20260509201512 19 123 0.0 3.2 0.41 11.10 10.24 93 1012.3
20260509200013 19 153 0.0 3.2 0.53 11.18 10.21 93 1012.1
20260509194516 19 149 0.0 4.8 0.61 11.18 10.11 93 1011.9
20260509193012 19 208 0.0 3.2 0.61 11.07 9.98 93 1012.8
20260509191524 19 251 0.0 1.6 0.61 10.92 9.83 93 1012.8
20260509190012 18 121 0.0 3.2 0.58 10.74 9.68 93 1012.2
20260509184526 18 163 0.0 4.8 0.46 10.59 9.50 93 1012.6
20260509183017 18 169 0.0 6.4 0.41 10.46 9.37 93 1012.5
20260509181518 18 148 4.8 12.9 0.28 10.31 9.22 93 1012.1